THOR ABLESTAR DEB

Satellite information

Favourite Embed

Satellite Type and Status

DEBRISIN ORBIT

Key statistics

Satellite THOR ABLESTAR DEB at a glance.

Uptime

23384

Days in orbit

Revolutions

≈ 14.4

Per day

Orbit

LEO

Low Earth Orbit

Inclination

66.7

Latest

Satellite identification and parameters

Extended collection of information and parameters for THOR ABLESTAR DEB.

Object identification

Identified? True

Debris? True

Object name: THOR ABLESTAR DEB

International designator: 1961-015NB

Object number (NORAD): 48823

Object ID (CCSDS): 48823

Country: UNITED STATES OF AMERICA (US)

Current information (Y/N): Y

RCS size: SMALL

Orbital parameters

Period: 100.28 minutes

Inclination: 66.6559 deg

SMA: 7149.95 km

Apoapsis: 856.413 km

Periapsis: 687.218 km

RAAN: 192.643 deg

Eccentricy: 0.0118319

Argument of periapsis: 325.6712 deg

Mean anomaly: 33.6781 deg

Mean motion: 14.35979533 rev/day

Mean motion (dot): 0.00000475 rev/day2

B* drag term: 0.00018029 1/REarth

Two-line elements (TLE)

Creation date: July 6, 2025, 6:05 p.m.

Reference frame: TEME

Reference center: EARTH

Epoch: July 6, 2025, 10:57 a.m. UTC

TLE line 0: 0 THOR ABLESTAR DEB

TLE line 1: 1 48823U 61015NB 25187.45654330 .00000475 00000-0 18029-3 0 9990

TLE line 2: 2 48823 66.6559 192.6430 0118319 325.6712 33.6781 14.35979533608065

Live tracking on map

Real-time ground track for satellite THOR ABLESTAR DEB.

In-orbit conjunctions

A list of the most updated potential collisions computed for object THOR ABLESTAR DEB.

Target Orbit TCA Probability of collision Miss distance Type
MOZ.5/SAFIR/RUBIN 5/SL-8 SSO 2024-11-10 22:25:30 0.0002554824 57.0 (m) PAYLOAD
NOAA 16 DEB SSO 2024-06-18 07:19:28 0.000125962 352.0 (m) DEBRIS

Associated space launch

THOR ABLESTAR DEB was lifted into orbit during the mission ‘Thor DM-21 Ablestar | Transit 4A & Injun-1 & Solrad 3’, on board a Thor DM-21 Ablestar space rocket.

The launch took place on June 29, 1961, 4:23 a.m. from Space Launch Complex 17B.

For more information about the launch, click the button.

Launch to space Thor DM-21 Ablestar | Transit 4A & Injun-1 & Solrad 3
Thor DM-21 Ablestar | Transit 4A & Injun-1 & Solrad 3

Agency: N/A

Status: Launch Successful

Launch date: June 29, 1961, 4:23 a.m. UTC

Rocket: Thor DM-21 Ablestar

Launch pad: Space Launch Complex 17B

Location: Cape Canaveral SFS, FL, USA

...

Latest news about this satellite

There are no fresh news available about this satellite. Check back as we update our databases every day.


Newsletter sign-up

Weekly statistics, charts and insights to help you stay on top of the space industry.